User: anonymous   Login
Location: Gairloch Mountain Observatory
(46.1383°N, 60.9640°W)
Time: 23:14:24
(UTC-03:00)
Language:

CENTAUR R/B - Orbit

View from above orbital plane
View from above orbital plane
View from above satellite
View from above satellite

Ground track
Ground track

The orbit data is extracted from the following two-line orbital elements,

1 26906U 01040B   17081.11150209 0.00000000  00000-0  00000-0 0    07
2 26906  63.4525 196.5488 0343000 342.8491  17.1509 13.44005138    04
Epoch (UTC): 22 March 2017 02:40:33
Eccentricity: 0.0343000
inclination: 63.4525°
perigee height: 838 km
apogee height: 1351 km
right ascension of ascending node: 196.5488°
argument of perigee: 342.8491°
revolutions per day: 13.44005138
mean anomaly at epoch: 17.1509°
orbit number at epoch: 0

The dashed part of the orbit path shows where the satellite is in the earth's shadow,  

DLR